Flag for Germany Weather past 2 weeks in Alsfeld, Hesse, Germany

Now
29 °F

Overcast.


Feels Like: 23 °F
Forecast: 18 / 35 °F
Wind: 5 mph from Southwest

Location: Fritzlar

Current Time: Dec 29, 2014 at 5:36:36 AM

Latest Report: Dec 29, 2014 at 4:00 AM


Visibility: 10 mi

Pressure: 30.39 "Hg

Humidity: 76%

Dew point: 22 °F

Location of AlsfeldLocation

Historic Weather in Alsfeld — Graph

°F

Alsfeld temperature yesterday

Maximum temperature yesterday: 30 °F (at 7:00 PM)
Minimum temperature yesterday: 21 °F (at 9:00 AM)
Average temperature yesterday: 26 °F

Past Weeks' High & Low Weather Summary

 TemperatureHumidityPressure
High56 °F (Dec 18, 9:00 PM)97% (Dec 14, 4:00 AM)30.50 "Hg (Dec 14, 4:00 AM)
Low21 °F (Dec 28, 9:00 AM)48% (Dec 28, 1:00 PM)29.58 "Hg (Dec 27, 2:00 PM)
Average40 °F83%30.05 "Hg
* Reported Dec 14 4:00 AM — Dec 29 4:00 AM, Alsfeld, Weather by CustomWeather, © 2014

Note: Actual official high and low records may vary slightly from our data, if they occured in-between our weather recording intervals... More about our weather records

Advertising

Alsfeld weather history for previous 24 hours

 ConditionsComfort  
Time TempWeatherWind HumidityBarometerVisibility
4:00 AM
Dec 29
29 °FOvercast.5 mph76%30.39 "Hg10 mi
3:00 AM29 °FOvercast.5 mph74%30.42 "Hg12 mi
2:00 AM29 °FOvercast.6 mph74%30.44 "Hg12 mi
1:00 AM29 °FOvercast.5 mph72%30.46 "Hg12 mi
12:00 AM30 °FOvercast.5 mph73%30.50 "Hg12 mi
11:00 PM
Dec 28
30 °FOvercast.3 mph69%30.50 "Hg12 mi
10:00 PM30 °FOvercast.3 mph70%30.48 "Hg12 mi
9:00 PM29 °FOvercast.2 mph74%30.47 "Hg12 mi
8:00 PM30 °FOvercast.5 mph72%30.47 "Hg12 mi
7:00 PM30 °FOvercast.3 mph69%30.45 "Hg12 mi
6:00 PM30 °FOvercast.3 mph70%30.42 "Hg12 mi
5:00 PM28 °FPassing clouds.2 mph72%30.39 "Hg19 mi
4:00 PM29 °FPassing clouds.3 mph63%30.36 "Hg19 mi
3:00 PM29 °FPassing clouds.5 mph56%30.33 "Hg19 mi
2:00 PM29 °FPassing clouds.5 mph52%30.30 "Hg19 mi
1:00 PM28 °FPassing clouds.6 mph48%30.29 "Hg19 mi
12:00 PM25 °FPassing clouds.3 mph57%30.28 "Hg19 mi
11:00 AM23 °FPassing clouds.3 mph61%30.25 "Hg16 mi
10:00 AM21 °FPassing clouds.3 mph68%30.22 "Hg16 mi
9:00 AM21 °FPassing clouds.5 mph70%30.16 "Hg16 mi
8:00 AM21 °FPassing clouds.6 mph67%30.11 "Hg16 mi
7:00 AM22 °FClear.5 mph64%30.05 "Hg12 mi
6:00 AM22 °FClear.6 mph67%29.99 "Hg12 mi
5:00 AM23 °FPassing clouds.5 mph73%29.95 "Hg12 mi
Weather by CustomWeather, © 2014

See weather overviewHow to use our weather pages